Regional Weather Roundup
Issued by NWS Charleston, WV

Home | Current Version | Previous Version | Text Only | Print | Product List | Glossary On
Versions: 1 2 3 4 5 6 7 8 9 10 11 12 13 14 15 16 17 18 19 20 21 22 23 24 25 26 27 28
000
ASUS41 KRLX 292210
RWRRLX
West Virginia Regional Weather Roundup
National Weather Service Charleston WV
600 PM EDT MON MAY 29 2017

Note: "fair" indicates few or no clouds below 12,000 feet with no
significant weather and/or obstructions to visibility.

WVZ003-292300-
Northern Panhandle of West Virginia

CITY           SKY/WX    TMP DP  RH WIND       PRES   REMARKS
WHEELING       SUNNY     77  52  41 SW8       29.93F
$$

WVZ009-292300-
Northwest West Virginia

CITY           SKY/WX    TMP DP  RH WIND       PRES   REMARKS
PARKERSBURG    MOSUNNY   79  56  45 SW6       29.97S
$$

WVZ006-292300-
Western West Virginia

CITY           SKY/WX    TMP DP  RH WIND       PRES   REMARKS
HUNTINGTON     MOSUNNY   80  57  45 SW8       29.96S
$$

WVZ015-292300-
West Central West Virginia

CITY           SKY/WX    TMP DP  RH WIND       PRES   REMARKS
CHARLESTON     MOSUNNY   78  55  44 S9        29.98F
$$

WVZ022-031-292300-
North Central West Virginia

CITY           SKY/WX    TMP DP  RH WIND       PRES   REMARKS
CLARKSBURG     MOSUNNY   75  54  47 SW10      29.97F
MORGANTOWN     CLOUDY    77  53  43 VRB7      29.97F
$$

WVZ025-035-042-045-292300-
Southern West Virginia

CITY           SKY/WX    TMP DP  RH WIND       PRES   REMARKS
BECKLEY        CLOUDY    69  51  52 W5        30.06F
LOGAN            N/A     73  57  56 CALM      30.01F
BLUEFIELD      PTSUNNY   68  56  65 VRB3      30.09S
LEWISBURG      CLOUDY    70  51  51 SW3       30.06S
$$

WVZ047-292300-
Northern Mountains of West Virginia

CITY           SKY/WX    TMP DP  RH WIND       PRES   REMARKS
ELKINS         CLOUDY    74  50  42 W8        30.03F
$$

WVZ052-292300-
Eastern Panhandle of West Virginia

CITY           SKY/WX    TMP DP  RH WIND       PRES   REMARKS
MARTINSBURG    CLOUDY    78  57  48 SW7       29.94S
PETERSBURG     MOSUNNY   77  57  49 SW3       29.98S
$$




USA.gov is the U.S. government's official web portal to all federal, state and local government web resources and services.